Merced, CA

12:03 AM PDT on August 26, 2016 (GMT -0700)
Castle

Weather History for KMER - April, 2014

Change the Weather History Date:

Monday, April 28, 2014

  Actual Average (KMCE) Record (KMCE)
Temperature  
Mean Temperature 62 °F 62 °F  
Max Temperature 78 °F 77 °F 95 °F (1987)
Min Temperature 46 °F 48 °F 36 °F (1955)
Degree Days  
Heating Degree Days 3    
Month to date heating degree days  
Since 1 July heating degree days  
Cooling Degree Days 0    
Month to date cooling degree days  
Year to date cooling degree days  
Growing Degree Days 12 (Base 50)    
Moisture  
Dew Point 46 °F    
Average Humidity 68    
Maximum Humidity 100    
Minimum Humidity 24    
Precipitation  
Precipitation 0.00 in 0.03 in 0.66 in (2005)
Month to date precipitation 0.90  
Year to date precipitation 7.92  
Snow  
Snow 0.00 in - - ()
Month to date snowfall  
Since 1 July snowfall  
Snow Depth -    
Sea Level Pressure  
Sea Level Pressure 30.12 in    
Wind  
Wind Speed 12 mph (North)    
Max Wind Speed 24 mph    
Max Gust Speed 32 mph    
Visibility 9 miles    
Events      
T = Trace of Precipitation, MM = Missing Value Source: NWS Daily Summary

Daily Weather History Graph

Daily Weather History Graph

Search for Another Location

Airport or City:

Trip Planner

Search our weather history database for the weather conditions in past years. The results will help you decide how hot, cold, wet, or windy it might be!

Date:

Astronomy

Apr. 28, 2014 Rise Set
Actual Time 6:10 AM PDT 7:49 PM PDT
Civil Twilight 5:42 AM PDT 8:17 PM PDT
Nautical Twilight 5:09 AM PDT 8:50 PM PDT
Astronomical Twilight 4:33 AM PDT 9:26 PM PDT
Moon 5:50 AM PDT (4/28) 7:33 PM PDT (4/28)
Length of Visible Light 14h 34m
Length of Day
13h 38m
Waning Crescent, 0% of the Moon is Illuminated
Apr 28
Waning Crescent
Apr 28
New
May 6
First Quarter
May 14
Full
May 21
Last Quarter

Hourly Weather History & Observations

Time (PDT) Temp. Dew Point Humidity Pressure Visibility Wind Dir Wind Speed Gust Speed Precip Events Conditions
12:15 AM 53.6 °F 44.6 °F 72% 30.10 in 10.0 mi North 10.4 mph - N/A   Clear
12:35 AM 51.8 °F 46.4 °F 82% 30.11 in 9.0 mi North - - N/A   Clear
12:55 AM 51.8 °F 46.4 °F 82% 30.11 in 10.0 mi North - - N/A   Clear
1:15 AM 51.8 °F 48.2 °F 88% 30.12 in 10.0 mi North - - N/A   Clear
1:35 AM 50.0 °F 48.2 °F 94% 30.11 in 10.0 mi North - - N/A   Clear
1:55 AM 51.8 °F 48.2 °F 88% 30.11 in 9.0 mi North - - N/A   Clear
2:15 AM 50.0 °F 48.2 °F 94% 30.11 in 9.0 mi North - - N/A   Clear
2:35 AM 48.2 °F 48.2 °F 100% 30.11 in 10.0 mi North - - N/A   Clear
2:55 AM 48.2 °F 48.2 °F 100% 30.11 in 9.0 mi North - - N/A   Clear
3:15 AM 48.2 °F 48.2 °F 100% 30.11 in 9.0 mi North - - N/A   Clear
3:35 AM 48.2 °F 48.2 °F 100% 30.12 in 9.0 mi North - - N/A   Clear
3:55 AM 48.2 °F 48.2 °F 100% 30.12 in 9.0 mi North - - N/A   Clear
4:15 AM 46.4 °F 46.4 °F 100% 30.12 in 8.0 mi North - - N/A   Clear
4:35 AM 48.2 °F 48.2 °F 100% 30.12 in 8.0 mi North 6.9 mph - N/A   Clear
5:55 AM 48.2 °F 48.2 °F 100% 30.13 in 8.0 mi North 9.2 mph - N/A   Clear
6:45 AM 48.2 °F 48.2 °F 100% 30.13 in 5.0 mi NNW 11.5 mph - N/A   Haze
7:45 AM 53.6 °F 53.6 °F 100% 30.16 in 7.0 mi NNW 13.8 mph - N/A   Clear
8:55 AM 60.8 °F 51.8 °F 72% 30.17 in 8.0 mi NNW 18.4 mph - N/A   Clear
9:45 AM 62.6 °F 48.2 °F 59% 30.17 in 8.0 mi NNW 20.7 mph - N/A   Clear
10:55 AM 68.0 °F 46.4 °F 46% 30.17 in 9.0 mi North 20.7 mph - N/A   Clear
11:45 AM 71.6 °F 44.6 °F 38% 30.17 in 10.0 mi North 20.7 mph 28.8 mph N/A   Clear
12:45 PM 73.4 °F 44.6 °F 36% 30.15 in 10.0 mi NNW 24.2 mph - N/A   Clear
1:45 PM 75.2 °F 44.6 °F 34% 30.14 in 10.0 mi North 19.6 mph - N/A   Clear
4:45 PM 78.8 °F 39.2 °F 24% 30.11 in 10.0 mi NNW 17.3 mph 29.9 mph N/A   Clear
5:45 PM 77.0 °F 39.2 °F 26% 30.10 in 10.0 mi North 23.0 mph 32.2 mph N/A   Clear
7:45 PM 69.8 °F 37.4 °F 31% 30.10 in 10.0 mi North 11.5 mph 17.3 mph N/A   Clear
8:15 PM 66.2 °F 35.6 °F 32% 30.10 in 10.0 mi North 11.5 mph - N/A   Clear
8:35 PM 66.2 °F 35.6 °F 32% 30.11 in 10.0 mi North 11.5 mph - N/A   Clear
8:45 PM 66.2 °F 35.6 °F 32% 30.11 in 10.0 mi North 11.5 mph - N/A   Clear
8:55 PM 64.4 °F 33.8 °F 32% 30.11 in 10.0 mi North 12.7 mph - N/A   Clear
9:15 PM 64.4 °F 42.8 °F 45% 30.12 in 10.0 mi North 9.2 mph - N/A   Clear
9:35 PM 64.4 °F 44.6 °F 49% 30.13 in 10.0 mi North 8.1 mph - N/A   Clear
9:55 PM 62.6 °F 48.2 °F 59% 30.13 in 10.0 mi North 8.1 mph - N/A   Clear
10:15 PM 62.6 °F 48.2 °F 59% 30.13 in 10.0 mi North 8.1 mph - N/A   Clear
10:35 PM 60.8 °F 48.2 °F 63% 30.13 in 10.0 mi North 6.9 mph - N/A   Clear
10:55 PM 60.8 °F 48.2 °F 63% 30.13 in 10.0 mi North 5.8 mph - N/A   Clear
11:15 PM 59.0 °F 48.2 °F 67% 30.12 in 10.0 mi NNW 5.8 mph - N/A   Clear
11:35 PM 57.2 °F 48.2 °F 72% 30.12 in 10.0 mi Calm Calm - N/A   Clear
11:55 PM 57.2 °F 48.2 °F 72% 30.13 in 10.0 mi Calm Calm - N/A   Clear